TimeCDT,TemperatureF,Dew PointF,Humidity,Sea Level PressureIn,VisibilityMPH,Wind Direction,Wind SpeedMPH,Gust SpeedMPH,PrecipitationIn,Events,Conditions,WindDirDegrees,DateUTC
12:13 AM,68.0,60.8,78,29.87,10.0,SE,6.9,-,N/A,,Clear,130,2013-09-27 05:13:00
12:33 AM,69.8,62.6,78,29.87,10.0,SE,8.1,-,N/A,,Clear,130,2013-09-27 05:33:00
12:52 AM,69.8,62.6,78,29.87,10.0,SE,8.1,-,N/A,,Clear,140,2013-09-27 05:52:00
1:13 AM,68.0,62.6,83,29.87,10.0,SE,8.1,-,N/A,,Clear,140,2013-09-27 06:13:00
1:33 AM,68.0,62.6,83,29.87,10.0,SE,8.1,-,N/A,,Clear,140,2013-09-27 06:33:00
1:52 AM,68.0,62.6,83,29.87,10.0,SE,6.9,-,N/A,,Clear,140,2013-09-27 06:52:00
2:13 AM,68.0,62.6,83,29.87,10.0,SE,8.1,-,N/A,,Clear,140,2013-09-27 07:13:00
2:33 AM,68.0,62.6,83,29.87,10.0,SE,6.9,-,N/A,,Clear,140,2013-09-27 07:33:00
2:52 AM,68.0,62.6,83,29.86,10.0,SE,10.4,-,N/A,,Clear,140,2013-09-27 07:52:00
3:13 AM,68.0,62.6,83,29.86,10.0,SE,11.5,-,N/A,,Clear,140,2013-09-27 08:13:00
3:32 AM,68.0,62.6,83,29.85,10.0,SE,10.4,-,N/A,,Clear,140,2013-09-27 08:32:00
3:53 AM,68.0,62.6,83,29.85,10.0,SE,9.2,-,N/A,,Clear,140,2013-09-27 08:53:00
4:13 AM,68.0,62.6,83,29.84,10.0,SE,9.2,-,N/A,,Clear,140,2013-09-27 09:13:00
4:32 AM,68.0,62.6,83,29.84,10.0,SE,11.5,17.3,N/A,,Clear,140,2013-09-27 09:32:00
4:53 AM,68.0,62.6,83,29.84,10.0,SE,10.4,17.3,N/A,,Clear,140,2013-09-27 09:53:00
5:13 AM,68.0,62.6,83,29.84,10.0,SE,10.4,16.1,N/A,,Clear,140,2013-09-27 10:13:00
5:32 AM,68.0,62.6,83,29.84,10.0,SE,10.4,-,N/A,,Clear,140,2013-09-27 10:32:00
5:53 AM,69.8,62.6,78,29.85,10.0,SSE,10.4,18.4,N/A,,Mostly Cloudy,150,2013-09-27 10:53:00
6:13 AM,69.8,62.6,78,29.85,10.0,SSE,10.4,18.4,N/A,,Overcast,150,2013-09-27 11:13:00
6:32 AM,69.8,62.6,78,29.87,10.0,SSE,8.1,-,N/A,,Scattered Clouds,160,2013-09-27 11:32:00
6:53 AM,69.8,62.6,78,29.87,10.0,SE,6.9,-,N/A,,Scattered Clouds,140,2013-09-27 11:53:00
7:13 AM,69.8,64.4,83,29.87,10.0,SSE,9.2,-,N/A,,Light Drizzle,150,2013-09-27 12:13:00
7:32 AM,69.8,64.4,83,29.85,10.0,SE,10.4,-,N/A,Rain,Light Rain,140,2013-09-27 12:32:00
7:52 AM,68.0,64.4,88,29.86,10.0,SSE,9.2,-,N/A,,Light Drizzle,150,2013-09-27 12:52:00
8:13 AM,68.0,64.4,88,29.86,10.0,SSE,9.2,-,N/A,,Light Drizzle,150,2013-09-27 13:13:00
8:32 AM,68.0,64.4,88,29.84,10.0,SE,15.0,18.4,N/A,,Scattered Clouds,130,2013-09-27 13:32:00
8:52 AM,66.2,64.4,94,29.84,7.0,SSE,15.0,23.0,N/A,Rain,Light Rain,150,2013-09-27 13:52:00
9:13 AM,66.2,64.4,94,29.85,5.0,SSE,8.1,-,N/A,Rain,Light Rain,160,2013-09-27 14:13:00
9:32 AM,66.2,64.4,94,29.86,7.0,SSE,10.4,16.1,N/A,Rain,Light Rain,150,2013-09-27 14:32:00
9:52 AM,66.2,64.4,94,29.84,10.0,SE,12.7,18.4,N/A,Rain,Rain,140,2013-09-27 14:52:00
10:13 AM,66.2,64.4,94,29.86,7.0,SE,12.7,17.3,N/A,Rain,Light Rain,140,2013-09-27 15:13:00
10:32 AM,66.2,64.4,94,29.84,7.0,SE,12.7,18.4,N/A,Rain,Light Rain,140,2013-09-27 15:32:00
10:52 AM,68.0,64.4,88,29.86,10.0,SSE,10.4,19.6,N/A,,Scattered Clouds,150,2013-09-27 15:52:00
11:13 AM,68.0,64.4,88,29.84,10.0,SE,11.5,20.7,N/A,Rain,Light Rain,140,2013-09-27 16:13:00
11:32 AM,69.8,64.4,83,29.85,10.0,SSE,9.2,17.3,N/A,,Mostly Cloudy,150,2013-09-27 16:32:00
11:53 AM,69.8,64.4,83,29.84,10.0,SSE,11.5,19.6,N/A,,Scattered Clouds,150,2013-09-27 16:53:00
12:13 PM,69.8,64.4,83,29.83,10.0,SE,10.4,17.3,N/A,,Scattered Clouds,140,2013-09-27 17:13:00
12:32 PM,71.6,64.4,78,29.83,10.0,SSE,9.2,16.1,N/A,,Scattered Clouds,150,2013-09-27 17:32:00
12:53 PM,71.6,66.2,83,29.83,10.0,SE,11.5,18.4,N/A,Thunderstorm,Scattered Clouds,140,2013-09-27 17:53:00
1:13 PM,73.4,66.2,78,29.80,10.0,SE,10.4,21.9,N/A,,Scattered Clouds,140,2013-09-27 18:13:00
1:32 PM,75.2,64.4,69,29.81,10.0,SSE,9.2,25.3,N/A,,Clear,150,2013-09-27 18:32:00
1:53 PM,77.0,64.4,65,29.78,10.0,SSE,13.8,20.7,N/A,,Clear,150,2013-09-27 18:53:00
2:13 PM,78.8,64.4,61,29.78,10.0,SSE,12.7,23.0,N/A,,Clear,150,2013-09-27 19:13:00
2:32 PM,80.6,64.4,58,29.76,10.0,SE,10.4,17.3,N/A,,Clear,140,2013-09-27 19:32:00
2:53 PM,80.6,62.6,54,29.76,10.0,SSE,11.5,20.7,N/A,,Clear,160,2013-09-27 19:53:00
3:13 PM,82.4,62.6,51,29.76,10.0,SSE,11.5,20.7,N/A,Thunderstorm,Clear,160,2013-09-27 20:13:00
3:32 PM,82.4,60.8,48,29.75,10.0,SSE,8.1,19.6,N/A,,Clear,160,2013-09-27 20:32:00
3:53 PM,82.4,60.8,48,29.76,10.0,SSE,9.2,20.7,N/A,,Clear,160,2013-09-27 20:53:00
4:13 PM,82.4,60.8,48,29.76,10.0,SSE,9.2,-,N/A,,Clear,150,2013-09-27 21:13:00
4:32 PM,82.4,60.8,48,29.77,10.0,South,5.8,-,N/A,,Clear,180,2013-09-27 21:32:00
4:53 PM,82.4,60.8,48,29.78,10.0,South,4.6,-,N/A,,Clear,180,2013-09-27 21:53:00
5:13 PM,82.4,59.0,45,29.78,10.0,SSE,6.9,-,N/A,,Clear,160,2013-09-27 22:13:00
5:32 PM,82.4,60.8,48,29.79,10.0,South,5.8,-,N/A,,Clear,170,2013-09-27 22:32:00
5:53 PM,82.4,60.8,48,29.79,10.0,SSE,5.8,-,N/A,,Clear,160,2013-09-27 22:53:00
6:13 PM,82.4,60.8,48,29.79,10.0,SSE,6.9,-,N/A,,Scattered Clouds,160,2013-09-27 23:13:00
6:32 PM,82.4,60.8,48,29.79,10.0,SSE,8.1,-,N/A,,Scattered Clouds,150,2013-09-27 23:32:00
6:53 PM,80.6,60.8,51,29.78,10.0,SSE,8.1,-,N/A,,Clear,150,2013-09-27 23:53:00
7:12 PM,80.6,60.8,51,29.78,10.0,SSE,9.2,-,N/A,,Clear,150,2013-09-28 00:12:00
7:33 PM,80.6,60.8,51,29.78,10.0,SSE,8.1,-,N/A,,Clear,150,2013-09-28 00:33:00
7:53 PM,80.6,60.8,51,29.78,10.0,SSE,9.2,-,N/A,,Clear,150,2013-09-28 00:53:00
8:12 PM,78.8,60.8,54,29.79,10.0,SSE,9.2,17.3,N/A,,Clear,150,2013-09-28 01:12:00
8:33 PM,78.8,60.8,54,29.79,10.0,SSE,8.1,-,N/A,,Clear,150,2013-09-28 01:33:00
8:52 PM,78.8,60.8,54,29.79,10.0,SSE,10.4,-,N/A,,Clear,150,2013-09-28 01:52:00
9:13 PM,78.8,60.8,54,29.79,10.0,SE,6.9,-,N/A,,Scattered Clouds,140,2013-09-28 02:13:00
9:33 PM,75.2,60.8,61,29.79,10.0,SE,9.2,-,N/A,,Clear,140,2013-09-28 02:33:00
9:52 PM,75.2,60.8,61,29.79,10.0,SE,9.2,-,N/A,,Clear,140,2013-09-28 02:52:00
10:13 PM,75.2,60.8,61,29.79,10.0,SSE,10.4,17.3,N/A,,Clear,150,2013-09-28 03:13:00
10:33 PM,75.2,60.8,61,29.79,10.0,SSE,12.7,19.6,N/A,,Clear,150,2013-09-28 03:33:00
10:52 PM,75.2,60.8,61,29.79,10.0,SSE,10.4,17.3,N/A,,Mostly Cloudy,150,2013-09-28 03:52:00
11:13 PM,75.2,60.8,61,29.78,10.0,SSE,10.4,19.6,N/A,,Scattered Clouds,150,2013-09-28 04:13:00
11:33 PM,75.2,60.8,61,29.77,10.0,SSE,10.4,20.7,N/A,,Scattered Clouds,150,2013-09-28 04:33:00
11:52 PM,73.4,60.8,65,29.76,10.0,SSE,9.2,18.4,N/A,,Scattered Clouds,160,2013-09-28 04:52:00